Location: Gazon
(48.1318°N, 1.2708°W)
Time: 22:47:11
(UTC+00:00)

Cosmos 1464 Rocket - Pass Details

Date: 18 September 2020
Orbit: 953 x 1000 km, 82.9° (Epoch: 25 October)

Event Time Altitude Azimuth Distance (km) Brightness Sun altitude
Rises 19:42:11 0° 186° (S) 3,616 6.8 -15.8°
Reaches altitude 10° 19:44:40 10° 187° (S) 2,675 6.2 -16.1°
Maximum altitude 19:50:47 90° 114° (ESE) 964 3.9 -17.1°
Drops below altitude 10° 19:57:00 10° 9° (N) 2,710 6.5 -18.1°
Sets 19:59:31 0° 10° (N) 3,666 7.2 -18.4°
